Location: Hermaringen
(48.5952°N, 10.2585°E)
Time: 04:57:29
(UTC+00:00)

Transit 2A - Pass Details

Date: 23 February 2026
Orbit: 590 x 954 km, 66.7° (Epoch: 14 March)

Event Time Altitude Azimuth Distance (km) Brightness Sun altitude
Rises 20:36:23 0° 315° (NW) 3,533 10.4 -36.5°
Reaches altitude 10° 20:39:38 10° 299° (WNW) 2,532 9.4 -36.9°
Maximum altitude 20:43:40 19° 256° (WSW) 1,866 8.3 -37.5°
Enters shadow 20:43:46 19° 254° (WSW) 1,864 8.3 -37.5°
